FALCON 9 R/B (49130 NORAD) Tracking and Keplerian Element Data

This shows tracking and keplerian element data for the satellite.

Feedback or suggestion? Click here.




ElementValue
Catalog49130
NameFALCON 9 R/B
Epoch Orbit248
Epoch Day272.53501442
Epoch Year2021
RAAN81.6629
Inclination69.9875
Eccentricity0.0006793
Argument of Perigee145.5509
Mean Anonmoly299.6961
Mean Motion16.51219688
Decay Rate0.23836338
L11 49130U 21082A 21272.53501442 .23836338 46224-5 22391-3 0 9997
L22 49130 69.9875 81.6629 0006793 145.5509 299.6961 16.51219688 2482

Live tracking and technical data element details for FALCON 9 R/B (NORAD 49130). FALCON 9 R/B can be tracked NOW for your location showing map with azimuth and elevation plus other details from your city location.

Track the satellite on the map from your city or location and see movement details for azimuth, elevation, latitude, longitude, range, height, and movement on the map or in text.







IsCatalogInMostPopularTable: catalog: 49130, numindb: 18
Update: records affected: 1



GetName: 49130 FALCON 9 R/B

Hit Count: updated at: Thu, 28 Oct 2021 11:24:33 GMT